Mackinac Island, MI

6:05 AM EDT on May 26, 2017 (GMT -0400)
Mackinac Island

Weather History for KMCD - February, 2013

Change the Weather History Date:

Tuesday, February 12, 2013

  Actual Average Record
Temperature  
Mean Temperature 25 °F -  
Max Temperature 26 °F 25 °F 41 °F (1976)
Min Temperature 24 °F 13 °F -12 °F (1981)
Degree Days  
Heating Degree Days 40    
Moisture  
Dew Point 19 °F    
Average Humidity 77    
Maximum Humidity 85    
Minimum Humidity 66    
Precipitation  
Precipitation 0.00 in - - ()
Sea Level Pressure  
Sea Level Pressure 29.82 in    
Wind  
Wind Speed 17 mph (West)    
Max Wind Speed 24 mph    
Max Gust Speed 31 mph    
Visibility 9 miles    
Events Snow    
Averages and records for this station are not official NWS values.
T = Trace of Precipitation, MM = Missing Value Source: NWS Daily Summary

Daily Weather History Graph

Daily Weather History Graph

Search for Another Location

Airport or City:

Trip Planner

Search our weather history database for the weather conditions in past years. The results will help you decide how hot, cold, wet, or windy it might be!

Date:

Astronomy

Feb. 12, 2013 Rise Set
Actual Time 7:45 AM EST 6:01 PM EST
Civil Twilight 7:14 AM EST 6:31 PM EST
Nautical Twilight 6:39 AM EST 7:06 PM EST
Astronomical Twilight 6:04 AM EST 7:41 PM EST
Moon 8:30 AM EST (2/12) 9:14 PM EST (2/12)
Length of Visible Light 11h 17m
Length of Day
10h 15m
Waxing Crescent, 7% of the Moon is Illuminated
Feb 12
Waxing Crescent
Feb 17
First Quarter
Feb 25
Full
Mar 4
Last Quarter
Mar 11
New

Hourly Weather History & Observations

Time (EST) Temp. Windchill Dew Point Humidity Pressure Visibility Wind Dir Wind Speed Gust Speed Precip Events Conditions
12:34 AM 24.8 °F 10.0 °F 20.3 °F 83% 29.72 in 4.0 mi West 21.9 mph 27.6 mph N/A Snow Light Snow
12:54 AM 24.6 °F 9.7 °F 19.9 °F 82% 29.72 in 5.0 mi West 21.9 mph 28.8 mph N/A Snow Light Snow
1:14 AM 24.6 °F 9.1 °F 20.1 °F 83% 29.73 in 5.0 mi West 24.2 mph 27.6 mph N/A   Overcast
1:33 AM 24.6 °F 9.7 °F 19.8 °F 82% 29.73 in 5.0 mi West 21.9 mph 31.1 mph N/A Snow Light Snow
2:33 AM 24.3 °F 9.6 °F 19.9 °F 84% 29.76 in 4.0 mi West 20.7 mph 28.8 mph N/A Snow Light Snow
4:14 AM 24.3 °F 10.0 °F 19.9 °F 84% 29.79 in 7.0 mi West 19.6 mph 25.3 mph N/A Snow Light Snow
4:33 AM 24.1 °F 10.6 °F 19.9 °F 84% 29.79 in 7.0 mi West 17.3 mph 24.2 mph N/A Snow Light Snow
4:54 AM 24.1 °F 9.8 °F 19.8 °F 84% 29.79 in 10.0 mi West 19.6 mph - N/A   Overcast
5:14 AM 24.3 °F 10.4 °F 19.9 °F 84% 29.80 in 10.0 mi West 18.4 mph 24.2 mph N/A   Overcast
5:33 AM 24.3 °F 12.7 °F 20.1 °F 84% 29.80 in 10.0 mi West 12.7 mph 21.9 mph N/A   Overcast
6:14 AM 24.4 °F 11.5 °F 20.3 °F 84% 29.82 in 10.0 mi West 16.1 mph - N/A   Overcast
6:33 AM 24.6 °F 12.2 °F 20.3 °F 84% 29.82 in 10.0 mi West 15.0 mph 19.6 mph N/A   Overcast
7:14 AM 24.8 °F 12.4 °F 20.8 °F 85% 29.83 in 10.0 mi West 15.0 mph 20.7 mph N/A   Overcast
8:14 AM 25.3 °F 12.2 °F 21.2 °F 84% 29.86 in 5.0 mi West 17.3 mph 23.0 mph N/A   Overcast
9:54 AM 25.3 °F 10.7 °F 21.2 °F 84% 29.88 in 7.0 mi West 21.9 mph 27.6 mph N/A Snow Light Snow
10:14 AM 25.2 °F 10.8 °F 21.0 °F 84% 29.89 in 5.0 mi West 20.7 mph 27.6 mph N/A Snow Light Snow
10:34 AM 25.3 °F 11.8 °F 20.7 °F 82% 29.89 in 5.0 mi West 18.4 mph 26.5 mph N/A Snow Light Snow
10:54 AM 25.5 °F 12.0 °F 20.1 °F 80% 29.89 in 7.0 mi West 18.4 mph 25.3 mph N/A Snow Light Snow
11:13 AM 25.5 °F 12.0 °F 19.8 °F 79% 29.89 in 7.0 mi West 18.4 mph 24.2 mph N/A Snow Light Snow
11:34 AM 25.7 °F 12.7 °F 19.4 °F 77% 29.89 in 10.0 mi West 17.3 mph - N/A Snow Light Snow
11:54 AM 26.2 °F 13.0 °F 19.4 °F 75% 29.89 in 10.0 mi West 18.4 mph 25.3 mph N/A   Overcast
12:14 PM 26.2 °F 12.2 °F 18.3 °F 72% 29.89 in 10.0 mi West 20.7 mph - N/A   Overcast
2:34 PM 26.6 °F 13.8 °F 17.6 °F 69% 29.85 in 10.0 mi West 17.3 mph 20.7 mph N/A   Overcast
3:34 PM 25.3 °F 14.7 °F 19.0 °F 77% 29.84 in 5.0 mi WSW 11.5 mph 17.3 mph N/A Snow Light Snow
4:13 PM 25.5 °F 14.3 °F 18.3 °F 74% 29.83 in 10.0 mi West 12.7 mph 18.4 mph N/A   Overcast
4:34 PM 25.7 °F 16.4 °F 15.8 °F 66% 29.83 in 10.0 mi West 9.2 mph 17.3 mph N/A   Overcast
4:54 PM 25.3 °F 15.3 °F 16.0 °F 68% 29.83 in 10.0 mi West 10.4 mph - N/A   Overcast
5:13 PM 25.2 °F 13.9 °F 16.3 °F 69% 29.83 in 10.0 mi West 12.7 mph 19.6 mph N/A   Overcast
5:34 PM 24.8 °F 12.4 °F 16.7 °F 71% 29.83 in 10.0 mi West 15.0 mph 21.9 mph N/A   Overcast
5:54 PM 24.8 °F 14.0 °F 17.4 °F 74% 29.83 in 10.0 mi West 11.5 mph 19.6 mph N/A Snow Light Snow
6:13 PM 24.8 °F 11.9 °F 18.5 °F 77% 29.84 in 10.0 mi West 16.1 mph - N/A   Overcast
6:34 PM 25.2 °F 13.3 °F 18.1 °F 75% 29.84 in 10.0 mi West 13.8 mph 20.7 mph N/A   Overcast
6:54 PM 25.2 °F 15.7 °F 18.5 °F 76% 29.84 in 10.0 mi West 9.2 mph - N/A Snow Light Snow
7:14 PM 25.2 °F 14.4 °F 18.5 °F 76% 29.84 in 10.0 mi West 11.5 mph 16.1 mph N/A   Overcast
7:34 PM 25.2 °F 14.4 °F 18.5 °F 76% 29.83 in 10.0 mi West 11.5 mph - N/A   Overcast
7:54 PM 25.0 °F 15.5 °F 19.0 °F 78% 29.83 in 10.0 mi West 9.2 mph - N/A   Overcast
8:14 PM 25.3 °F 14.1 °F 18.7 °F 76% 29.82 in 10.0 mi West 12.7 mph 19.6 mph N/A   Overcast
8:34 PM 25.3 °F 12.6 °F 16.5 °F 69% 29.82 in 10.0 mi West 16.1 mph 20.7 mph N/A   Overcast
8:54 PM 25.3 °F 13.6 °F 17.2 °F 71% 29.82 in 10.0 mi West 13.8 mph 19.6 mph N/A   Overcast
9:14 PM 25.5 °F 15.5 °F 17.6 °F 72% 29.82 in 10.0 mi WSW 10.4 mph 17.3 mph N/A   Overcast
9:34 PM 25.7 °F 16.4 °F 19.2 °F 76% 29.81 in 10.0 mi WSW 9.2 mph - N/A   Overcast
9:53 PM 26.2 °F 16.4 °F 18.9 °F 74% 29.81 in 10.0 mi SW 10.4 mph 20.7 mph N/A   Overcast
10:14 PM 26.1 °F 14.5 °F 18.5 °F 73% 29.81 in 10.0 mi WSW 13.8 mph 24.2 mph N/A   Overcast
10:34 PM 25.7 °F 15.1 °F 18.3 °F 74% 29.81 in 10.0 mi WSW 11.5 mph 18.4 mph N/A   Overcast
10:53 PM 25.7 °F 14.6 °F 18.5 °F 74% 29.81 in 10.0 mi WSW 12.7 mph 18.4 mph N/A   Overcast
11:14 PM 26.2 °F 16.4 °F 18.5 °F 73% 29.80 in 10.0 mi West 10.4 mph 16.1 mph N/A   Overcast
11:34 PM 26.4 °F 17.3 °F 19.2 °F 74% 29.79 in 10.0 mi West 9.2 mph - N/A   Overcast
11:53 PM 26.6 °F 19.1 °F 19.8 °F 75% 29.78 in 10.0 mi WSW 6.9 mph - N/A   Overcast